1998-067NK

Last updated on Wed Nov 22 2017 00:15:03 GMT+0000 (Coordinated Universal Time)

1 43026U 98067NK 17325.53414207 .00006350 00000-0 10000-3 0 9997 2 43026 51.6479 333.9209 0006447 53.8384 87.3414 15.54973194 38

Satellite not in orbit

1998-067NK